Regional Weather Roundup
Issued by NWS

Home | Current Version | Previous Version | Graphics & Text | Print | Product List | Glossary On
Versions: 1 2 3 4 5 6 7 8 9 10 11 12 13 14 15 16 17 18 19 20 21 22 23 24 25 26 27 28 29 30 31 32 33 34 35 36 37 38 39 40 41 42 43 44 45 46 47 48 49 50
000
ASUS43 KDMX 230701
RWRIA

WEATHER ROUNDUP FOR IOWA
NATIONAL WEATHER SERVICE DES MOINES IA
200 AM CDT MON APR 23 2018

NOTE: "FAIR" INDICATES FEW OR NO CLOUDS BELOW 12,000 FEET WITH NO
SIGNIFICANT WEATHER AND/OR OBSTRUCTIONS TO VISIBILITY.

* - THESE STATIONS ARE NOT NWS STATIONS...THUS NOT UNDER NWS
QUALITY CONTROL.  THEY ALSO DO NOT REPORT WEATHER SUCH
AS PRECIPITATION OR FOG.

IAZ001>003-012>014-020>022-031>034-043>046-230800-
   NORTHWEST IOWA

CITY           SKY/WX    TMP DP  RH WIND       PRES   REMARKS
CARROLL *      CLEAR     37  32  81 NW5       30.19S WCI  34
DENISON *      CLEAR     41  30  65 CALM      30.20F
LE MARS *      CLEAR     39  37  93 N6        30.21S WCI  35
ORANGE CITY *  CLEAR     43  39  87 E6        30.21S
SHELDON *      CLEAR     37  37 100 E3        30.20S
SIOUX CITY     CLEAR     42  38  85 CALM      30.20S
SPENCER        CLEAR     38  34  85 CALM      30.22S
STORM LAKE *   CLEAR     45  39  81 NE5       30.20S
$$

IAZ055>058-069>071-079>083-090>094-230800-
   SOUTHWEST IOWA

CITY           SKY/WX    TMP DP  RH WIND       PRES   REMARKS
ATLANTIC *     CLEAR     39  30  70 N3        30.18S
AUDUBON *      CLEAR     36  30  80 CALM      30.20S
CLARINDA *     PTCLDY    46  28  49 N7        30.18S
COUNCIL BLFS * CLEAR     50  27  40 E12       30.16F
CRESTON *      CLOUDY    50  27  40 NE10      30.18S
HARLAN  *      CLEAR     45  28  53 CALM      30.21F
LAMONI         MOCLDY    53  29  39 NE10      30.15S
RED OAK *      CLOUDY    50  27  40 N5        30.17S
SHENANDOAH *   CLEAR     46  28  49 N3        30.17S
$$

IAZ047>049-059>061-072>074-084-230800-
   CENTRAL IOWA

CITY           SKY/WX    TMP DP  RH WIND       PRES   REMARKS
AMES           CLOUDY    50  34  54 E3        30.20S
ANKENY *       CLOUDY    52  32  46 E7        30.20F
BOONE *        CLOUDY    46  34  61 E9        30.19S
CHARITON *     CLOUDY    54  30  40 E9        30.16F
DES MOINES     CLOUDY    53  31  42 E6        30.18F
GRINNELL*      MOCLDY    45  31  58 E7        30.20F
KNOXVILLE *    CLOUDY    50  28  43 E7        30.16F
MARSHALLTOWN   CLOUDY    49  36  61 E3        30.20S
NEWTON *       CLOUDY    48  32  53 E8        30.19F
PELLA *        CLEAR     50  28  43 E6        30.19F
$$

IAZ004>006-015-016-023>025-035-036-230800-
   NORTH CENTRAL IOWA

CITY           SKY/WX    TMP DP  RH WIND       PRES   REMARKS
ALGONA *       CLEAR     43  36  75 NE5       30.22S
CLARION *      CLEAR     41  36  81 E9        30.21S
ESTHERVILLE    CLEAR     35  33  92 N6        30.22S WCI  30
FORT DODGE *   CLEAR     42  38  85 N5        30.21S
MASON CITY     CLEAR     39  33  79 N5        30.24S
FOREST CITY *  FAIR      37  36  93 CALM      30.22S
IOWA FALLS *   CLOUDY    50  36  59 E3        30.22R
$$

IAZ007>011-017>019-026>030-037>042-050>054-066-230800-
   NORTHEAST IOWA

CITY           SKY/WX    TMP DP  RH WIND       PRES   REMARKS
CEDAR RAPIDS   FAIR      49  29  46 E10       30.19S
CHARLES CITY * FAIR      43  32  65 E6        30.23S
CLINTON *      FAIR      45  29  53 E10       30.21S
DECORAH *      FAIR      45  30  57 E5        30.23S
DUBUQUE        FAIR      43  28  55 NE9       30.22F
MONTICELLO *   FAIR      46  30  53 NE5       30.21S
OELWEIN *      FAIR      45  32  61 E8        30.23S
WATERLOO       FAIR      41  34  76 E3        30.22R
$$

IAZ064-065-067-068-078-230800-
   EAST CENTRAL IOWA

CITY           SKY/WX    TMP DP  RH WIND       PRES   REMARKS
DAVENPORT      FAIR      45  27  49 E9        30.21F
IOWA CITY      FAIR      52  26  36 E10       30.19F
MUSCATINE *    FAIR      52  27  37 E8        30.18F
QUAD CITIES    FAIR      45  29  53 E9        30.18F
$$

IAZ062-063-075>077-085>089-095>099-230800-
   SOUTHEAST IOWA

CITY           SKY/WX    TMP DP  RH WIND       PRES   REMARKS
BURLINGTON     PTCLDY    50  28  42 NE14      30.14F
FAIRFIELD *    CLOUDY    52  27  37 E12       30.16S
FORT MADISON * CLOUDY    52  30  43 NE9       30.15F
KEOKUK *       CLOUDY    52  30  43 NE9G16    30.13F
OSKALOOSA *    FAIR      48  29  48 NE8       30.18S
CENTERVILLE *    N/A     52  32  46 NE9       30.16S
OTTUMWA        CLOUDY    51  29  42 NE9       30.16F
WASHINGTON *   CLOUDY    50  30  46 NE7       30.18S
$$

ABBREVIATIONS USED IN REMARKS
   TC - TEMPERATURES IN CELSIUS
  WCI - WIND CHILL INDEX
   HX - HEAT INDEX
  VSB - VISIBILITY
$$




USA.gov is the U.S. government's official web portal to all federal, state and local government web resources and services.